User: anonymous   Login
Location: Strohbehn Observatory
(42.4649°N, 93.8239°W)
Time: 22:34:12
(UTC-05:00)
Language:

SL-16 R/B - Orbit

View from above orbital plane
View from above orbital plane
View from above satellite
View from above satellite

Ground track
Ground track

The orbit data is extracted from the following two-line orbital elements,

1 31793U 07029B   16179.83111797  .00000079  00000-0  66302-4 0  9999
2 31793  70.9769  53.4811 0002505 279.3021 152.2867 14.14367297464617
Epoch (UTC): 27 June 2016 19:56:48
Eccentricity: 0.0002505
inclination: 70.9769°
perigee height: 842 km
apogee height: 846 km
right ascension of ascending node: 53.4811°
argument of perigee: 279.3021°
revolutions per day: 14.14367297
mean anomaly at epoch: 152.2867°
orbit number at epoch: 46461

The dashed part of the orbit path shows where the satellite is in the earth's shadow,  

DLR